,,,PA_Meas_PMT16A,,PR_Meas_QMR101_102,,RH_Meas_QMH101,,SR_Meas_QMS101,,TA_Meas_QMH101,,GenWind,,GenWind,
date,time,status,PA,status,PR,status,RH,status,SR,status,TA,status,DirAvg,status,SpdAvg,
2011-01-12, 00:00:04,VALID,1006.99,VALID,0,VALID,103.733,VALID,0,VALID,22.9164,VALID,297,VALID,0,
2011-01-12, 00:01:04,VALID,1006.97,VALID,0,VALID,103.764,VALID,0,VALID,22.8952,VALID,297,VALID,0,
2011-01-12, 00:02:04,VALID,1006.96,VALID,0,VALID,103.764,VALID,0,VALID,22.9359,VALID,297,VALID,0.0121094,
2011-01-12, 00:03:04,VALID,1006.95,VALID,0,VALID,103.787,VALID,0,VALID,22.9147,VALID,297,VALID,0,
2011-01-12, 00:04:04,VALID,1006.96,VALID,0,VALID,103.779,VALID,0,VALID,22.9359,VALID,297,VALID,0,
2011-01-12, 00:05:04,VALID,1006.94,VALID,0,VALID,103.771,VALID,0,VALID,22.9147,VALID,297,VALID,0,
2011-01-12, 00:06:04,VALID,1006.95,VALID,0,VALID,103.764,VALID,0,VALID,22.9147,VALID,297,VALID,0,
2011-01-12, 00:07:04,VALID,1006.94,VALID,0,VALID,103.787,VALID,0,VALID,22.9147,VALID,297,VALID,0,
2011-01-12, 00:08:04,VALID,1006.93,VALID,0,VALID,103.794,VALID,0,VALID,22.9147,VALID,297,VALID,0,
2011-01-12, 00:09:04,VALID,1006.88,VALID,0,VALID,103.794,VALID,0,VALID,22.9359,VALID,297,VALID,0,
2011-01-12, 00:10:04,VALID,1006.91,VALID,0,VALID,103.809,VALID,0,VALID,22.9147,VALID,297,VALID,0,
2011-01-12, 00:11:04,VALID,1006.9,VALID,0,VALID,103.802,VALID,0,VALID,22.9342,VALID,297,VALID,0,
2011-01-12, 00:12:04,VALID,1006.86,VALID,0,VALID,103.817,VALID,0,VALID,22.9359,VALID,297,VALID,0,
2011-01-12, 00:13:04,VALID,1006.88,VALID,0,VALID,103.832,VALID,0,VALID,22.9342,VALID,297,VALID,0,
2011-01-12, 00:14:04,VALID,1006.84,VALID,0,VALID,103.848,VALID,0,VALID,22.9342,VALID,297,VALID,0,
2011-01-12, 00:15:04,VALID,1006.85,VALID,0,VALID,103.855,VALID,0,VALID,22.9147,VALID,297,VALID,0,
2011-01-12, 00:16:04,VALID,1006.82,VALID,0,VALID,103.84,VALID,0,VALID,22.9359,VALID,297,VALID,0,
2011-01-12, 00:17:04,VALID,1006.8,VALID,0,VALID,103.855,VALID,0,VALID,22.9359,VALID,297,VALID,0,
2011-01-12, 00:18:04,VALID,1006.81,VALID,0,VALID,103.87,VALID,0,VALID,22.9342,VALID,297,VALID,0,
2011-01-12, 00:19:04,VALID,1006.8,VALID,0,VALID,103.863,VALID,0,VALID,22.9359,VALID,297,VALID,0,
2011-01-12, 00:20:04,VALID,1006.77,VALID,0,VALID,103.878,VALID,0,VALID,22.9554,VALID,297,VALID,0,
2011-01-12, 00:21:04,VALID,1006.8,VALID,0,VALID,103.878,VALID,0,VALID,22.9147,VALID,297,VALID,0,
2011-01-12, 00:22:04,VALID,1006.75,VALID,0,VALID,103.863,VALID,0,VALID,22.8952,VALID,297,VALID,0,
2011-01-12, 00:23:04,VALID,1006.77,VALID,0,VALID,103.848,VALID,0,VALID,22.8952,VALID,297,VALID,0,
2011-01-12, 00:24:04,VALID,1006.74,VALID,0,VALID,103.87,VALID,0,VALID,22.8757,VALID,297,VALID,0,
2011-01-12, 00:25:04,VALID,1006.75,VALID,0,VALID,103.886,VALID,0,VALID,22.8969,VALID,297,VALID,0,
2011-01-12, 00:26:04,VALID,1006.75,VALID,0,VALID,103.886,VALID,0,VALID,22.8562,VALID,297,VALID,0,
2011-01-12, 00:27:04,VALID,1006.72,VALID,0,VALID,103.901,VALID,0,VALID,22.8562,VALID,297,VALID,0,
2011-01-12, 00:28:04,VALID,1006.71,VALID,0,VALID,103.909,VALID,0,VALID,22.8368,VALID,297,VALID,0,
2011-01-12, 00:29:04,VALID,1006.73,VALID,0,VALID,103.893,VALID,0,VALID,22.8368,VALID,297,VALID,0,
2011-01-12, 00:30:04,VALID,1006.71,VALID,0,VALID,103.893,VALID,0,VALID,22.8775,VALID,297,VALID,0,
2011-01-12, 00:31:04,VALID,1006.7,VALID,0,VALID,103.916,VALID,0,VALID,22.8562,VALID,297,VALID,0,
2011-01-12, 00:32:04,VALID,1006.72,VALID,0,VALID,103.916,VALID,0,VALID,22.8562,VALID,297,VALID,0,
2011-01-12, 00:33:04,VALID,1006.71,VALID,0,VALID,103.924,VALID,0,VALID,22.8368,VALID,297,VALID,0,
2011-01-12, 00:34:04,VALID,1006.71,VALID,0,VALID,103.924,VALID,0,VALID,22.8562,VALID,297,VALID,0,
2011-01-12, 00:35:04,VALID,1006.67,VALID,0,VALID,103.931,VALID,0,VALID,22.8368,VALID,297,VALID,0,
2011-01-12, 00:36:04,VALID,1006.66,VALID,0,VALID,103.931,VALID,0,VALID,22.8775,VALID,297,VALID,0,
2011-01-12, 00:37:04,VALID,1006.67,VALID,0,VALID,103.931,VALID,0,VALID,22.8562,VALID,297,VALID,0,
2011-01-12, 00:38:04,VALID,1006.64,VALID,0,VALID,103.939,VALID,0,VALID,22.8562,VALID,297,VALID,0,
2011-01-12, 00:39:04,VALID,1006.66,VALID,0,VALID,103.924,VALID,0,VALID,22.8775,VALID,297,VALID,0,
2011-01-12, 00:40:04,VALID,1006.66,VALID,0,VALID,103.954,VALID,0,VALID,22.8562,VALID,297,VALID,0,
2011-01-12, 00:41:04,VALID,1006.63,VALID,0,VALID,103.954,VALID,0.105969,VALID,22.874,VALID,297,VALID,0,
2011-01-12, 00:42:04,VALID,1006.68,VALID,0,VALID,103.962,VALID,0.105969,VALID,22.8935,VALID,297,VALID,0,
2011-01-12, 00:43:04,VALID,1006.64,VALID,0,VALID,103.954,VALID,0.105969,VALID,22.874,VALID,297,VALID,0,
2011-01-12, 00:44:04,VALID,1006.62,VALID,0,VALID,103.962,VALID,0.105969,VALID,22.8935,VALID,297,VALID,0,
2011-01-12, 00:45:04,VALID,1006.65,VALID,0,VALID,103.962,VALID,0.105969,VALID,22.8935,VALID,297,VALID,0,
2011-01-12, 00:46:04,VALID,1006.63,VALID,0,VALID,103.97,VALID,0.105969,VALID,22.8935,VALID,297,VALID,0,
2011-01-12, 00:47:04,VALID,1006.64,VALID,0,VALID,103.992,VALID,0.105969,VALID,22.874,VALID,297,VALID,0,
2011-01-12, 00:48:04,VALID,1006.64,VALID,0,VALID,103.977,VALID,0.105969,VALID,22.8952,VALID,297,VALID,0,
2011-01-12, 00:49:04,VALID,1006.61,VALID,0,VALID,103.985,VALID,0.105969,VALID,22.874,VALID,297,VALID,0,
2011-01-12, 00:50:04,VALID,1006.64,VALID,0,VALID,103.954,VALID,0.105969,VALID,22.874,VALID,297,VALID,0,
2011-01-12, 00:51:04,VALID,1006.64,VALID,0,VALID,103.954,VALID,0.105969,VALID,22.8952,VALID,297,VALID,0,
2011-01-12, 00:52:04,VALID,1006.62,VALID,0,VALID,103.977,VALID,0.105969,VALID,22.8935,VALID,297,VALID,0,
2011-01-12, 00:53:04,VALID,1006.65,VALID,0,VALID,103.962,VALID,0.105969,VALID,22.8952,VALID,297,VALID,0,
2011-01-12, 00:54:04,VALID,1006.62,VALID,0,VALID,103.954,VALID,0.105969,VALID,22.874,VALID,297,VALID,0,
2011-01-12, 00:55:04,VALID,1006.62,VALID,0,VALID,103.977,VALID,0.105969,VALID,22.874,VALID,297,VALID,0,
2011-01-12, 00:56:04,VALID,1006.58,VALID,0,VALID,103.977,VALID,0,VALID,22.8562,VALID,297,VALID,0,
2011-01-12, 00:57:04,VALID,1006.58,VALID,0,VALID,103.977,VALID,0,VALID,22.8562,VALID,297,VALID,0,
2011-01-12, 00:58:04,VALID,1006.58,VALID,0,VALID,103.977,VALID,0,VALID,22.8368,VALID,297,VALID,0,
2011-01-12, 00:59:04,VALID,1006.57,VALID,0,VALID,103.992,VALID,0,VALID,22.8368,VALID,297,VALID,0,
2011-01-12, 01:00:04,VALID,1006.55,VALID,0,VALID,104,VALID,0,VALID,22.8173,VALID,297,VALID,0,
2011-01-12, 01:01:04,VALID,1006.53,VALID,0,VALID,103.992,VALID,0,VALID,22.8173,VALID,297,VALID,0,
2011-01-12, 01:02:04,VALID,1006.49,VALID,0,VALID,104,VALID,0,VALID,22.819,VALID,297,VALID,0,
2011-01-12, 01:03:04,VALID,1006.51,VALID,0,VALID,103.985,VALID,0,VALID,22.8173,VALID,297,VALID,0,
2011-01-12, 01:04:04,VALID,1006.53,VALID,0,VALID,103.977,VALID,0,VALID,22.8368,VALID,297,VALID,0,
2011-01-12, 01:05:04,VALID,1006.51,VALID,0,VALID,103.992,VALID,0,VALID,22.8173,VALID,297,VALID,0,
2011-01-12, 01:06:04,VALID,1006.5,VALID,0,VALID,103.985,VALID,0,VALID,22.8368,VALID,297,VALID,0,
2011-01-12, 01:07:04,VALID,1006.49,VALID,0,VALID,103.985,VALID,0,VALID,22.8368,VALID,297,VALID,0,
2011-01-12, 01:08:04,VALID,1006.49,VALID,0,VALID,103.985,VALID,0,VALID,22.8368,VALID,297,VALID,0,
2011-01-12, 01:09:04,VALID,1006.48,VALID,0,VALID,104,VALID,0,VALID,22.8368,VALID,297,VALID,0,
2011-01-12, 01:10:04,VALID,1006.49,VALID,0,VALID,104,VALID,0,VALID,22.8562,VALID,297,VALID,0,
2011-01-12, 01:11:04,VALID,1006.48,VALID,0,VALID,103.992,VALID,0,VALID,22.8562,VALID,297,VALID,0,
2011-01-12, 01:12:04,VALID,1006.5,VALID,0,VALID,103.985,VALID,0,VALID,22.8775,VALID,297,VALID,0,
2011-01-12, 01:13:04,VALID,1006.49,VALID,0,VALID,103.992,VALID,0,VALID,22.8562,VALID,297,VALID,0,
2011-01-12, 01:14:04,VALID,1006.51,VALID,0,VALID,104,VALID,0,VALID,22.8775,VALID,297,VALID,0,
2011-01-12, 01:15:04,VALID,1006.5,VALID,0,VALID,103.977,VALID,0,VALID,22.8562,VALID,297,VALID,0,
2011-01-12, 01:16:04,VALID,1006.5,VALID,0,VALID,103.977,VALID,0,VALID,22.8562,VALID,297,VALID,0,
2011-01-12, 01:17:04,VALID,1006.5,VALID,0,VALID,103.992,VALID,0,VALID,22.8368,VALID,297,VALID,0,
2011-01-12, 01:18:04,VALID,1006.47,VALID,0,VALID,104,VALID,0,VALID,22.8368,VALID,297,VALID,0,
2011-01-12, 01:19:04,VALID,1006.53,VALID,0,VALID,103.977,VALID,0,VALID,22.8368,VALID,297,VALID,0,
2011-01-12, 01:20:04,VALID,1006.5,VALID,0,VALID,103.977,VALID,0.105969,VALID,22.8562,VALID,297,VALID,0,
2011-01-12, 01:21:04,VALID,1006.47,VALID,0,VALID,103.985,VALID,0,VALID,22.8757,VALID,297,VALID,0,
2011-01-12, 01:22:04,VALID,1006.45,VALID,0,VALID,103.97,VALID,0,VALID,22.8757,VALID,297,VALID,0,
2011-01-12, 01:23:04,VALID,1006.45,VALID,0,VALID,103.985,VALID,0,VALID,22.8757,VALID,297,VALID,0,
2011-01-12, 01:24:04,VALID,1006.43,VALID,0,VALID,104,VALID,0,VALID,22.8775,VALID,297,VALID,0,
2011-01-12, 01:25:04,VALID,1006.44,VALID,0,VALID,103.992,VALID,0,VALID,22.8757,VALID,297,VALID,0,
2011-01-12, 01:26:04,VALID,1006.46,VALID,0,VALID,103.985,VALID,0,VALID,22.8969,VALID,297,VALID,0,
2011-01-12, 01:27:04,VALID,1006.44,VALID,0,VALID,103.97,VALID,0,VALID,22.8952,VALID,297,VALID,0,
2011-01-12, 01:28:04,VALID,1006.46,VALID,0,VALID,103.977,VALID,0,VALID,22.8757,VALID,297,VALID,0,
2011-01-12, 01:29:04,VALID,1006.44,VALID,0,VALID,103.985,VALID,0,VALID,22.8952,VALID,297,VALID,0,
2011-01-12, 01:30:04,VALID,1006.45,VALID,0,VALID,103.985,VALID,0,VALID,22.8952,VALID,297,VALID,0,
2011-01-12, 01:31:04,VALID,1006.42,VALID,0,VALID,103.977,VALID,0,VALID,22.8952,VALID,297,VALID,0,
2011-01-12, 01:32:04,VALID,1006.44,VALID,0,VALID,103.992,VALID,0,VALID,22.8952,VALID,297,VALID,0,
2011-01-12, 01:33:04,VALID,1006.45,VALID,0,VALID,103.977,VALID,0,VALID,22.8757,VALID,297,VALID,0,
2011-01-12, 01:34:04,VALID,1006.43,VALID,0,VALID,103.992,VALID,0,VALID,22.8757,VALID,297,VALID,0,
2011-01-12, 01:35:04,VALID,1006.45,VALID,0,VALID,104,VALID,0,VALID,22.8562,VALID,297,VALID,0,
2011-01-12, 01:36:04,VALID,1006.45,VALID,0,VALID,103.992,VALID,0,VALID,22.8562,VALID,297,VALID,0,
2011-01-12, 01:37:04,VALID,1006.45,VALID,0,VALID,103.992,VALID,0,VALID,22.8368,VALID,297,VALID,0,
2011-01-12, 01:38:04,VALID,1006.45,VALID,0,VALID,103.992,VALID,0,VALID,22.8368,VALID,297,VALID,0,
2011-01-12, 01:39:04,VALID,1006.45,VALID,0,VALID,103.992,VALID,0,VALID,22.8368,VALID,297,VALID,0,
2011-01-12, 01:40:04,VALID,1006.46,VALID,0,VALID,103.985,VALID,0,VALID,22.8368,VALID,297,VALID,0,
2011-01-12, 01:41:04,VALID,1006.43,VALID,0,VALID,103.977,VALID,0,VALID,22.858,VALID,297,VALID,0,
2011-01-12, 01:42:04,VALID,1006.42,VALID,0,VALID,104,VALID,0,VALID,22.8385,VALID,297,VALID,0,
2011-01-12, 01:43:04,VALID,1006.42,VALID,0,VALID,103.992,VALID,0,VALID,22.8173,VALID,297,VALID,0,
2011-01-12, 01:44:04,VALID,1006.41,VALID,0,VALID,103.992,VALID,0,VALID,22.8385,VALID,297,VALID,0,
2011-01-12, 01:45:04,VALID,1006.42,VALID,0,VALID,103.977,VALID,0,VALID,22.8173,VALID,297,VALID,0,
2011-01-12, 01:46:04,VALID,1006.44,VALID,0,VALID,103.992,VALID,0,VALID,22.819,VALID,297,VALID,0,
2011-01-12, 01:47:04,VALID,1006.45,VALID,0,VALID,103.985,VALID,0,VALID,22.8173,VALID,297,VALID,0,
2011-01-12, 01:48:04,VALID,1006.45,VALID,0,VALID,103.985,VALID,0,VALID,22.8385,VALID,297,VALID,0,
2011-01-12, 01:49:04,VALID,1006.45,VALID,0,VALID,103.992,VALID,0,VALID,22.8385,VALID,297,VALID,0,
2011-01-12, 01:50:04,VALID,1006.44,VALID,0,VALID,103.985,VALID,0,VALID,22.8385,VALID,297,VALID,0,
2011-01-12, 01:51:04,VALID,1006.44,VALID,0,VALID,103.992,VALID,0,VALID,22.8173,VALID,297,VALID,0,
2011-01-12, 01:52:04,VALID,1006.47,VALID,0,VALID,103.985,VALID,0,VALID,22.8385,VALID,297,VALID,0,
2011-01-12, 01:53:04,VALID,1006.45,VALID,0,VALID,103.977,VALID,0,VALID,22.8385,VALID,297,VALID,0,
2011-01-12, 01:54:04,VALID,1006.46,VALID,0,VALID,103.977,VALID,0,VALID,22.8173,VALID,297,VALID,0,
2011-01-12, 01:55:04,VALID,1006.47,VALID,0,VALID,103.985,VALID,0,VALID,22.8173,VALID,297,VALID,0,
2011-01-12, 01:56:04,VALID,1006.45,VALID,0,VALID,103.977,VALID,0,VALID,22.8173,VALID,297,VALID,0,
2011-01-12, 01:57:04,VALID,1006.44,VALID,0,VALID,103.992,VALID,0,VALID,22.858,VALID,297,VALID,0,
2011-01-12, 01:58:04,VALID,1006.47,VALID,0,VALID,103.992,VALID,0,VALID,22.8173,VALID,297,VALID,0,
2011-01-12, 01:59:04,VALID,1006.46,VALID,0,VALID,103.977,VALID,0,VALID,22.858,VALID,297,VALID,0,
2011-01-12, 02:00:04,VALID,1006.43,VALID,0,VALID,103.992,VALID,0,VALID,22.8368,VALID,297,VALID,0,
2011-01-12, 02:01:04,VALID,1006.46,VALID,0,VALID,103.977,VALID,0,VALID,22.8368,VALID,297,VALID,0,
2011-01-12, 02:02:04,VALID,1006.44,VALID,0,VALID,104,VALID,0,VALID,22.8368,VALID,297,VALID,0,
2011-01-12, 02:03:04,VALID,1006.46,VALID,0,VALID,103.992,VALID,0,VALID,22.8368,VALID,297,VALID,0,
2011-01-12, 02:04:04,VALID,1006.46,VALID,0,VALID,103.962,VALID,0,VALID,22.8368,VALID,297,VALID,0,
2011-01-12, 02:05:04,VALID,1006.48,VALID,0,VALID,103.97,VALID,0,VALID,22.8562,VALID,297,VALID,0,
2011-01-12, 02:06:04,VALID,1006.46,VALID,0,VALID,103.985,VALID,0,VALID,22.8562,VALID,297,VALID,0,
2011-01-12, 02:07:04,VALID,1006.46,VALID,0,VALID,103.977,VALID,0,VALID,22.858,VALID,297,VALID,0,
2011-01-12, 02:08:04,VALID,1006.44,VALID,0,VALID,104,VALID,0,VALID,22.858,VALID,297,VALID,0,
2011-01-12, 02:09:04,VALID,1006.45,VALID,0,VALID,103.985,VALID,0,VALID,22.858,VALID,297,VALID,0,
2011-01-12, 02:10:04,VALID,1006.44,VALID,0,VALID,103.97,VALID,0,VALID,22.8562,VALID,297,VALID,0,
2011-01-12, 02:11:04,VALID,1006.46,VALID,0,VALID,103.977,VALID,0,VALID,22.8562,VALID,297,VALID,0,
2011-01-12, 02:12:04,VALID,1006.45,VALID,0,VALID,103.977,VALID,0,VALID,22.8562,VALID,297,VALID,0,
2011-01-12, 02:13:04,VALID,1006.46,VALID,0,VALID,103.977,VALID,0,VALID,22.8562,VALID,297,VALID,0,
2011-01-12, 02:14:04,VALID,1006.47,VALID,0,VALID,103.954,VALID,0,VALID,22.8562,VALID,297,VALID,0,
2011-01-12, 02:15:04,VALID,1006.44,VALID,0,VALID,103.977,VALID,0,VALID,22.8562,VALID,297,VALID,0,
2011-01-12, 02:16:04,VALID,1006.43,VALID,0,VALID,103.962,VALID,0,VALID,22.8969,VALID,297,VALID,0,
2011-01-12, 02:17:04,VALID,1006.44,VALID,0,VALID,103.962,VALID,0,VALID,22.8757,VALID,297,VALID,0,
2011-01-12, 02:18:04,VALID,1006.45,VALID,0,VALID,103.954,VALID,0,VALID,22.8969,VALID,297,VALID,0,
2011-01-12, 02:19:04,VALID,1006.46,VALID,0,VALID,103.97,VALID,0,VALID,22.8952,VALID,297,VALID,0,
2011-01-12, 02:20:04,VALID,1006.45,VALID,0,VALID,103.962,VALID,0,VALID,22.8952,VALID,297,VALID,0,
2011-01-12, 02:21:04,VALID,1006.45,VALID,0,VALID,103.947,VALID,0,VALID,22.8952,VALID,297,VALID,0,
2011-01-12, 02:22:04,VALID,1006.43,VALID,0,VALID,103.962,VALID,0,VALID,22.8969,VALID,297,VALID,0,
2011-01-12, 02:23:04,VALID,1006.42,VALID,0,VALID,103.97,VALID,0,VALID,22.8969,VALID,297,VALID,0,
2011-01-12, 02:24:04,VALID,1006.42,VALID,0,VALID,103.947,VALID,0,VALID,22.8952,VALID,297,VALID,0,
2011-01-12, 02:25:04,VALID,1006.42,VALID,0,VALID,103.954,VALID,0,VALID,22.8952,VALID,297,VALID,0,
2011-01-12, 02:26:04,VALID,1006.41,VALID,0,VALID,104,VALID,0,VALID,22.8969,VALID,297,VALID,0,
2011-01-12, 02:27:04,VALID,1006.4,VALID,0,VALID,103.977,VALID,0,VALID,22.8562,VALID,297,VALID,0,
2011-01-12, 02:28:04,VALID,1006.39,VALID,0,VALID,103.977,VALID,0,VALID,22.8368,VALID,297,VALID,0,
2011-01-12, 02:29:04,VALID,1006.39,VALID,0,VALID,103.985,VALID,0,VALID,22.8368,VALID,297,VALID,0,
2011-01-12, 02:30:04,VALID,1006.35,VALID,0,VALID,103.947,VALID,0,VALID,22.8368,VALID,297,VALID,0,
2011-01-12, 02:31:04,VALID,1006.38,VALID,0,VALID,103.97,VALID,0,VALID,22.858,VALID,297,VALID,0,
2011-01-12, 02:32:04,VALID,1006.39,VALID,0,VALID,103.954,VALID,0,VALID,22.8368,VALID,297,VALID,0,
2011-01-12, 02:33:04,VALID,1006.4,VALID,0,VALID,103.97,VALID,0,VALID,22.858,VALID,297,VALID,0,
2011-01-12, 02:34:04,VALID,1006.39,VALID,0,VALID,103.947,VALID,0,VALID,22.8562,VALID,297,VALID,0,
2011-01-12, 02:35:04,VALID,1006.36,VALID,0,VALID,103.954,VALID,0,VALID,22.8775,VALID,297,VALID,0,
2011-01-12, 02:36:04,VALID,1006.38,VALID,0,VALID,103.939,VALID,0,VALID,22.8757,VALID,297,VALID,0,
2011-01-12, 02:37:04,VALID,1006.37,VALID,0,VALID,103.924,VALID,0,VALID,22.8969,VALID,297,VALID,0,
2011-01-12, 02:38:04,VALID,1006.38,VALID,0,VALID,103.939,VALID,0,VALID,22.9164,VALID,297,VALID,0,
2011-01-12, 02:39:04,VALID,1006.36,VALID,0,VALID,103.947,VALID,0,VALID,22.8952,VALID,297,VALID,0,
2011-01-12, 02:40:04,VALID,1006.38,VALID,0,VALID,103.954,VALID,0,VALID,22.8952,VALID,297,VALID,0,
2011-01-12, 02:41:04,VALID,1006.37,VALID,0,VALID,103.947,VALID,0,VALID,22.8952,VALID,297,VALID,0,
2011-01-12, 02:42:04,VALID,1006.37,VALID,0,VALID,103.924,VALID,0,VALID,22.9342,VALID,297,VALID,0,
2011-01-12, 02:43:04,VALID,1006.37,VALID,0,VALID,103.939,VALID,0,VALID,22.9359,VALID,297,VALID,0,
2011-01-12, 02:44:04,VALID,1006.36,VALID,0,VALID,103.931,VALID,0,VALID,22.9342,VALID,297,VALID,0,
2011-01-12, 02:45:04,VALID,1006.38,VALID,0,VALID,103.962,VALID,0,VALID,22.9554,VALID,297,VALID,0,
2011-01-12, 02:46:04,VALID,1006.38,VALID,0,VALID,103.931,VALID,0,VALID,22.9342,VALID,297,VALID,0,
2011-01-12, 02:47:04,VALID,1006.38,VALID,0,VALID,103.931,VALID,0,VALID,22.9554,VALID,297,VALID,0,
2011-01-12, 02:48:04,VALID,1006.37,VALID,0,VALID,103.954,VALID,0,VALID,22.9554,VALID,297,VALID,0,
2011-01-12, 02:49:04,VALID,1006.39,VALID,0,VALID,103.962,VALID,0,VALID,22.9554,VALID,297,VALID,0,
2011-01-12, 02:50:04,VALID,1006.38,VALID,0,VALID,103.962,VALID,0,VALID,22.9359,VALID,297,VALID,0,
2011-01-12, 02:51:04,VALID,1006.41,VALID,0,VALID,103.977,VALID,0,VALID,22.9359,VALID,297,VALID,0,
2011-01-12, 02:52:04,VALID,1006.37,VALID,0,VALID,103.962,VALID,0,VALID,22.9359,VALID,297,VALID,0,
2011-01-12, 02:53:04,VALID,1006.38,VALID,0,VALID,103.985,VALID,0,VALID,22.8969,VALID,297,VALID,0,
2011-01-12, 02:54:04,VALID,1006.39,VALID,0,VALID,103.954,VALID,0,VALID,22.8969,VALID,297,VALID,0,
2011-01-12, 02:55:04,VALID,1006.39,VALID,0,VALID,103.962,VALID,0,VALID,22.8969,VALID,297,VALID,0,
2011-01-12, 02:56:04,VALID,1006.36,VALID,0,VALID,103.992,VALID,0,VALID,22.8757,VALID,297,VALID,0,
2011-01-12, 02:57:04,VALID,1006.36,VALID,0,VALID,103.962,VALID,0,VALID,22.8969,VALID,297,VALID,0,
2011-01-12, 02:58:04,VALID,1006.36,VALID,0,VALID,103.954,VALID,0,VALID,22.8969,VALID,297,VALID,0,
2011-01-12, 02:59:04,VALID,1006.34,VALID,0,VALID,103.939,VALID,0,VALID,22.9164,VALID,297,VALID,0,
2011-01-12, 03:00:05,VALID,1006.34,VALID,0,VALID,103.97,VALID,0,VALID,22.8757,VALID,297,VALID,0,
2011-01-12, 03:01:05,VALID,1006.33,VALID,0,VALID,103.947,VALID,0,VALID,22.8952,VALID,297,VALID,0,
2011-01-12, 03:02:05,VALID,1006.31,VALID,0,VALID,103.947,VALID,0,VALID,22.8757,VALID,297,VALID,0,
2011-01-12, 03:03:05,VALID,1006.34,VALID,0,VALID,103.954,VALID,0,VALID,22.8969,VALID,297,VALID,0,
2011-01-12, 03:04:05,VALID,1006.32,VALID,0,VALID,103.962,VALID,0,VALID,22.8757,VALID,297,VALID,0,
2011-01-12, 03:05:05,VALID,1006.32,VALID,0,VALID,103.954,VALID,0,VALID,22.8757,VALID,297,VALID,0,
2011-01-12, 03:06:05,VALID,1006.32,VALID,0,VALID,103.962,VALID,0,VALID,22.8969,VALID,297,VALID,0,
2011-01-12, 03:07:05,VALID,1006.3,VALID,0,VALID,103.939,VALID,0,VALID,22.8969,VALID,297,VALID,0,
2011-01-12, 03:08:05,VALID,1006.31,VALID,0,VALID,103.931,VALID,0,VALID,22.8757,VALID,297,VALID,0,
2011-01-12, 03:09:05,VALID,1006.29,VALID,0,VALID,103.931,VALID,0,VALID,22.9164,VALID,297,VALID,0,
2011-01-12, 03:10:05,VALID,1006.28,VALID,0,VALID,103.939,VALID,0,VALID,22.8757,VALID,297,VALID,0,
2011-01-12, 03:11:05,VALID,1006.28,VALID,0,VALID,103.947,VALID,0,VALID,22.8952,VALID,297,VALID,0,
2011-01-12, 03:12:05,VALID,1006.26,VALID,0,VALID,103.947,VALID,0,VALID,22.8969,VALID,297,VALID,0,
2011-01-12, 03:13:05,VALID,1006.25,VALID,0,VALID,103.962,VALID,0,VALID,22.8969,VALID,297,VALID,0,
2011-01-12, 03:14:05,VALID,1006.24,VALID,0,VALID,103.947,VALID,0,VALID,22.8562,VALID,297,VALID,0,
2011-01-12, 03:15:05,VALID,1006.2,VALID,0,VALID,103.962,VALID,0,VALID,22.8562,VALID,297,VALID,0,
2011-01-12, 03:16:05,VALID,1006.2,VALID,0,VALID,103.947,VALID,0,VALID,22.8775,VALID,297,VALID,0,
2011-01-12, 03:17:05,VALID,1006.19,VALID,0,VALID,103.931,VALID,0,VALID,22.8775,VALID,297,VALID,0,
2011-01-12, 03:18:05,VALID,1006.19,VALID,0,VALID,103.954,VALID,0,VALID,22.8775,VALID,297,VALID,0,
2011-01-12, 03:19:05,VALID,1006.19,VALID,0,VALID,103.947,VALID,0,VALID,22.8562,VALID,297,VALID,0,
2011-01-12, 03:20:05,VALID,1006.2,VALID,0,VALID,103.939,VALID,0,VALID,22.8562,VALID,297,VALID,0,
2011-01-12, 03:21:05,VALID,1006.16,VALID,0,VALID,103.954,VALID,0,VALID,22.8775,VALID,297,VALID,0,
2011-01-12, 03:22:05,VALID,1006.2,VALID,0,VALID,103.939,VALID,0,VALID,22.8562,VALID,297,VALID,0,
2011-01-12, 03:23:05,VALID,1006.18,VALID,0,VALID,103.931,VALID,0,VALID,22.8775,VALID,297,VALID,0,
2011-01-12, 03:24:05,VALID,1006.17,VALID,0,VALID,103.962,VALID,0,VALID,22.8775,VALID,297,VALID,0,
2011-01-12, 03:25:05,VALID,1006.18,VALID,0,VALID,103.931,VALID,0,VALID,22.8775,VALID,297,VALID,0,
2011-01-12, 03:26:05,VALID,1006.17,VALID,0,VALID,103.924,VALID,0,VALID,22.8952,VALID,297,VALID,0,
2011-01-12, 03:27:05,VALID,1006.16,VALID,0,VALID,103.909,VALID,0,VALID,22.8969,VALID,297,VALID,0,
2011-01-12, 03:28:05,VALID,1006.2,VALID,0,VALID,103.931,VALID,0,VALID,22.8757,VALID,297,VALID,0,
2011-01-12, 03:29:05,VALID,1006.15,VALID,0,VALID,103.947,VALID,0,VALID,22.8969,VALID,297,VALID,0,
2011-01-12, 03:30:05,VALID,1006.18,VALID,0,VALID,103.939,VALID,0,VALID,22.8775,VALID,297,VALID,0,
2011-01-12, 03:31:05,VALID,1006.15,VALID,0,VALID,103.939,VALID,0,VALID,22.8775,VALID,297,VALID,0,
2011-01-12, 03:32:05,VALID,1006.15,VALID,0,VALID,103.916,VALID,0,VALID,22.8969,VALID,297,VALID,0,
2011-01-12, 03:33:05,VALID,1006.15,VALID,0,VALID,103.909,VALID,0,VALID,22.8757,VALID,297,VALID,0,
2011-01-12, 03:34:05,VALID,1006.13,VALID,0,VALID,103.916,VALID,0,VALID,22.9164,VALID,297,VALID,0,
2011-01-12, 03:35:05,VALID,1006.12,VALID,0,VALID,103.924,VALID,0,VALID,22.9164,VALID,297,VALID,0,
2011-01-12, 03:36:05,VALID,1006.14,VALID,0,VALID,103.924,VALID,0,VALID,22.9164,VALID,297,VALID,0,
2011-01-12, 03:37:05,VALID,1006.11,VALID,0,VALID,103.909,VALID,0,VALID,22.8952,VALID,297,VALID,0,
2011-01-12, 03:38:05,VALID,1006.11,VALID,0,VALID,103.924,VALID,0,VALID,22.8952,VALID,297,VALID,0,
2011-01-12, 03:39:05,VALID,1006.13,VALID,0,VALID,103.947,VALID,0,VALID,22.8952,VALID,297,VALID,0,
2011-01-12, 03:40:05,VALID,1006.09,VALID,0,VALID,103.924,VALID,0,VALID,22.8952,VALID,297,VALID,0,
2011-01-12, 03:41:05,VALID,1006.1,VALID,0,VALID,103.931,VALID,0,VALID,22.8969,VALID,297,VALID,0,
2011-01-12, 03:42:05,VALID,1006.08,VALID,0,VALID,103.939,VALID,0,VALID,22.8775,VALID,297,VALID,0,
2011-01-12, 03:43:05,VALID,1006.08,VALID,0,VALID,103.947,VALID,0,VALID,22.8775,VALID,297,VALID,0,
2011-01-12, 03:44:05,VALID,1006.06,VALID,0,VALID,103.977,VALID,0,VALID,22.858,VALID,297,VALID,0,
2011-01-12, 03:45:05,VALID,1006.07,VALID,0,VALID,103.954,VALID,0,VALID,22.8385,VALID,297,VALID,0,
2011-01-12, 03:46:05,VALID,1006.08,VALID,0,VALID,103.939,VALID,0,VALID,22.858,VALID,297,VALID,0,
2011-01-12, 03:47:05,VALID,1006.07,VALID,0,VALID,103.954,VALID,0,VALID,22.8385,VALID,297,VALID,0,
2011-01-12, 03:48:05,VALID,1006.05,VALID,0,VALID,103.954,VALID,0,VALID,22.8173,VALID,297,VALID,0,
2011-01-12, 03:49:05,VALID,1006.03,VALID,0,VALID,103.962,VALID,0,VALID,22.8385,VALID,297,VALID,0,
2011-01-12, 03:50:05,VALID,1006.04,VALID,0,VALID,103.939,VALID,0,VALID,22.8385,VALID,297,VALID,0,
2011-01-12, 03:51:05,VALID,1006.06,VALID,0,VALID,103.916,VALID,0,VALID,22.8385,VALID,297,VALID,0,
2011-01-12, 03:52:05,VALID,1006.03,VALID,0,VALID,103.947,VALID,0,VALID,22.8173,VALID,297,VALID,0,
2011-01-12, 03:53:05,VALID,1006.02,VALID,0,VALID,103.954,VALID,0,VALID,22.8173,VALID,297,VALID,0,
2011-01-12, 03:54:05,VALID,1006,VALID,0,VALID,103.954,VALID,0,VALID,22.7978,VALID,297,VALID,0,
2011-01-12, 03:55:05,VALID,1005.98,VALID,0,VALID,103.962,VALID,0,VALID,22.819,VALID,297,VALID,0,
2011-01-12, 03:56:05,VALID,1005.97,VALID,0,VALID,103.954,VALID,0,VALID,22.819,VALID,297,VALID,0,
2011-01-12, 03:57:05,VALID,1005.98,VALID,0,VALID,103.962,VALID,0,VALID,22.7978,VALID,297,VALID,0,
2011-01-12, 03:58:05,VALID,1005.96,VALID,0,VALID,103.924,VALID,0,VALID,22.7783,VALID,297,VALID,0,
2011-01-12, 03:59:05,VALID,1005.97,VALID,0,VALID,103.954,VALID,0,VALID,22.819,VALID,297,VALID,0,